Torna al catalogo

STARLINK-30367

AttivoComunicazioniVLEO
NORAD 57791·PAYLOAD·🇺🇸 United States

Lanciato Sep 4, 2023 da Cape Canaveral Space Force Station

Loading…

Prossimi Passaggi (prossime 24 ore)

TLE

AggiornatoSource: CelesTrak SupGP

Epoca: Sep 14, 2026, 21:31 UTC

1 57791C 23134W   26257.89701389  .00015699  00000+0  56864-3 0  2577
2 57791  43.0006 205.9206 0001146 259.8237 106.9137 15.27569596    19

Traccia STARLINK-30367 in tempo reale con AllMySat

Download on the App Store